Flag for Canada Weather past 2 weeks in Cambridge, Ontario, Canada

Now
82 °F

Passing clouds.


Feels Like: 81 °F
Forecast: 57 / 82 °F
Wind: 22 mph from South

Location: Waterloo Well

Current Time: Aug 2, 2015 at 2:36:22 PM

Latest Report: Aug 2, 2015 at 2:00 PM


Visibility: 9 mi

Pressure: 29.78 "Hg

Humidity: 37%

Dew point: 54 °F

Location of CambridgeLocation

Historic Weather in Cambridge — Graph

°F

Cambridge temperature yesterday

Maximum temperature yesterday: 79 °F (at 3:00 PM)
Minimum temperature yesterday: 57 °F (at 4:00 AM)
Average temperature yesterday: 68 °F

Past Weeks' High & Low Weather Summary

 TemperatureHumidityPressure
High90 °F (Jul 29, 3:00 PM)100% (Jul 20, 6:00 AM)30.06 "Hg (Jul 20, 6:00 AM)
Low46 °F (Jul 24, 5:00 AM)31% (Jul 29, 3:00 PM)29.64 "Hg (Jul 21, 2:00 AM)
Average71 °F69%29.89 "Hg
* Reported Jul 18 1:00 PM — Aug 2 1:00 PM, Cambridge, Weather by CustomWeather, © 2015

Note: Actual official high and low records may vary slightly from our data, if they occured in-between our weather recording intervals... More about our weather records

Advertising

Cambridge weather history for previous 24 hours

 ConditionsComfort  
Time TempWeatherWind HumidityBarometerVisibility
1:00 PM
Sun, Aug 2
82 °FSunny.16 mph35%29.80 "Hg9 mi
12:00 PM81 °FSunny.15 mph37%29.83 "Hg9 mi
11:00 AM79 °FSunny.12 mph45%29.83 "Hg9 mi
10:00 AM77 °FSunny.14 mph42%29.85 "Hg9 mi
9:00 AM72 °FSunny.12 mph57%29.86 "Hg9 mi
8:00 AM64 °FSunny.2 mph83%29.86 "Hg9 mi
7:00 AM54 °FClear.No wind94%29.86 "Hg9 mi
6:00 AM52 °FClear.No wind100%29.84 "Hg9 mi
5:00 AM55 °FClear.No wind94%29.84 "Hg9 mi
4:00 AM59 °FClear.5 mph88%29.83 "Hg9 mi
3:00 AM59 °FPassing clouds.2 mph88%29.84 "Hg9 mi
2:00 AM61 °FPassing clouds.2 mph83%29.85 "Hg9 mi
1:00 AM59 °FClear.No wind82%29.86 "Hg9 mi
12:00 AM61 °FClear.No wind83%29.86 "Hg9 mi
11:00 PM
Sat, Aug 1
63 °FClear.3 mph77%29.86 "Hg9 mi
10:00 PM66 °FClear.5 mph68%29.86 "Hg9 mi
9:00 PM70 °FOvercast.6 mph60%29.85 "Hg9 mi
8:00 PM72 °FPassing clouds.12 mph53%29.84 "Hg9 mi
7:00 PM75 °FPassing clouds.13 mph47%29.83 "Hg9 mi
6:00 PM75 °FScattered clouds.16 mph47%29.83 "Hg9 mi
5:00 PM79 °FScattered clouds.18 mph39%29.83 "Hg9 mi
4:00 PM79 °FScattered clouds.17 mph39%29.84 "Hg9 mi
3:00 PM79 °FScattered clouds.17 mph42%29.84 "Hg9 mi
2:00 PM77 °FBroken clouds.10 mph47%29.85 "Hg9 mi
Weather by CustomWeather, © 2015

See weather overviewHow to use our weather pages